User: anonymous   Login
Location: T�bingen+AIT
(48.5342°N, 9.0700°E)
Time: 21:04:04
(UTC+01:00)
Language:

Cosmos 1184 Rocket - Orbit

View from above orbital plane
View from above orbital plane
View from above satellite
View from above satellite

Ground track
Ground track

The orbit data is extracted from the following two-line orbital elements,

1 11822U 80044B   17345.90389091 +.00002731 +00000-0 +54674-4 0  9992
2 11822 081.2307 006.9527 0013310 061.1739 299.0840 15.46242520060684
Epoch (UTC): 11 December 2017 21:41:36
Eccentricity: 0.0013310
inclination: 81.2307°
perigee height: 418 km
apogee height: 437 km
right ascension of ascending node: 6.9527°
argument of perigee: 61.1739°
revolutions per day: 15.46242520
mean anomaly at epoch: 299.0840°
orbit number at epoch: 6068

The dashed part of the orbit path shows where the satellite is in the earth's shadow,  

DLR